SC

 

 

Sooner Challenge OLR - 71M TT

Station: SAVANNA - T Race

Distance: 71 Miles    

Release: 12-Oct-2021 07:45

Weather Release:    Arrival:

Wind at Release:     Wind at Arrival:

Temp at Release: °    Temp at Arrival: °

Lofts: 170

Birds: 379

Clocked: 383

Good Luck to Everyone!
Drops Pos Breeder Pigeon Name Color Sex Ent Arrival Speed To Win Elg PdHgRAOCPick
1 Cemfly Loft 2 - OK 1031-AU21-PRO BBWF H 1 09:05:49.14 1546.171 00:00:00 Yes
2 Gomez Loft - CA 5082-AU21-CHP CKWF H 1 09:05:49.69 1545.996 00:00:01 Yes
3 Carver Loft - OH 0202-AU21-IHC BB H 1 09:05:53.05 1544.925 00:00:04 Yes
4 Triple T Loft - TX 5349-AU21-ARPU CK H 1 09:05:54.50 1544.461 00:00:05 Yes
5 Gvlhr - AZ 0269-AU21-JSRL BB H 1 09:05:56.30 1543.888 00:00:07 Yes
6 Shifting Bandit Syndicate - TX 0052-AU21-SHIF 617-141 OPAL H 1 09:05:56.44 1543.844 00:00:07 Yes
7 Brower&mcreynolds - OK 0649-AU21-PRO BB H 1 09:05:58.44 1543.208 00:00:09 Yes
8 Twin Points Loft - MD 1029-AU21-CAP GRZL H 1 09:05:58.67 1543.138 00:00:10 Yes
9 Kolvenbag & Son - PA 1554-IF21-KOLV BB H 1 09:05:59.06 1543.014 00:00:10 Yes
10 Bionic Loft - LA 0173-AU21-CAJN BB H 1 09:05:59.47 1542.881 00:00:10 Yes
11 M & L Loft - TX 45154-AU21-ARPU CK H 1 09:06:02.03 1542.072 00:00:13 Yes
12 Mike Hines - SD 1573-AU21-GPF RDCK H 1 09:06:04.02 1541.441 00:00:15 Yes
13 Whiskey Hollow Loft - TX 0044-AU21-WACO " Ghost Bandit" CK H 1 09:06:06.79 1540.564 00:00:18 Yes
14 Shirey Loft - PA 0633-AU21-GSV DKCK H 1 09:06:07.00 1540.497 00:00:18 Yes
- !--!-AE07F789-! 09:06:08.15 1540.133
15 Thao Pigeon Loft 2 - MN 0376-AU21-VIK BB H 1 09:06:08.26 1540.095 00:00:19 Yes
16 Wing & A Prayer - WI 1440-AU21-MPC RED H 1 09:06:09.62 1539.668 00:00:20 Yes
- !--!-AE07F99D-! 09:06:10.25 1539.469
17 Laqu Lofts - MI 6618-AU21-ARPU Tellurium BB H 1 09:06:11.12 1539.194 00:00:22 Yes
18 Jallens Loft - LA 0222-AU21-LAF Annabelle CKWF H 1 09:06:12.51 1538.752 00:00:23 Yes
19 Bsb Loft - OK 10273-AU21-FOYS CK H 1 09:06:12.61 1538.724 00:00:23 Yes
20 Roberts Family Loft - TX 0121-AU21-ROBE D248/ D864 CK H 1 09:06:14.82 1538.026 00:00:26 Yes
21 Bizblood - CA 3272-AU21-FVC Greek -ken -911 BB H 1 09:06:15.81 1537.714 00:00:27 Yes
22 Van Den Bossche Brothers - ME 1190-IF21-CMP BadboY BB C 1 09:06:15.94 1537.673 00:00:27 Yes
23 Cemfly Loft 2 - OK 1112-AU21-PRO BB H 2 09:06:18.17 1536.970 00:00:29 Yes
24 John Sherrick - OK 0150-AU21-PRO BB H 1 09:06:18.69 1536.806 00:00:30 Yes
25 Jojos International - TX 6146-AU21-JOJO CK H 1 09:06:19.80 1536.456 00:00:31 Yes
26 Taranto Loft 2 - NJ 2130-IF21-FJT SILV H 1 09:06:20.89 1536.113 00:00:32 Yes
27 Genesis Syndicate Loft - AZ 0339-AU21-GENE BB H 1 09:06:21.16 1536.028 00:00:32 Yes
28 Lone Oak Loft - TX 2121-AU21-LOL Sonny-Rose-4 BB H 1 09:06:22.17 1535.711 00:00:33 Yes
29 Holts Loft - NC 0561-AU21-HOLT BBWF H 1 09:06:23.18 1535.393 00:00:34 Lost
30 John Sherrick - OK 0146-AU21-PRO CK H 2 09:06:27.36 1534.077 00:00:38 Yes
31 Adams Loft - PA 1144-IF21-FSJ BLCK H 1 09:06:27.44 1534.051 00:00:38 Yes
32 Rick Barker - CA 0233-AU21-VIP BB H 1 09:06:29.96 1533.264 00:00:41 Yes
33 Lone Oak Loft - TX 2120-AU21-LOL Sonny-Rose-3 BBSP H 2 09:06:31.65 1532.734 00:00:43 Yes
34 New Era Loft - PA 21022-AU21-NEL CK H 1 09:06:34.09 1531.970 00:00:45 Yes
35 Nanez Family Loft - WI 1033-AU21-NANE BB H 1 09:06:34.42 1531.864 00:00:45 Yes
36 New Era Loft - PA 21016-AU21-NEL BB H 2 09:06:35.10 1531.654 00:00:46 Yes
37 Garde Loft - NM 2118-AU21-GARD BBWF H 1 09:06:35.78 1531.441 00:00:47 Yes
38 Kfly Racing Pigeon Loft - ID 2107-AU21-KFLY KonPea X Easley Money CK H 1 09:06:37.56 1530.882 00:00:48 Yes
39 Adams Loft - PA 1047-IF21-FSJ BB H 2 09:06:38.13 1530.707 00:00:49 Yes
40 Kfly Racing Pigeon Loft - ID 2106-AU21-KFLY KonRuby x Miss Fletcher BB H 2 09:06:42.29 1529.405 00:00:53 Yes
41 BFA Loft - MN 6570-AU21-ARPU Blessing BB H 1 09:06:42.81 1529.245 00:00:54 Yes
42 Gomez Loft - CA 5084-AU21-CHP BB H 2 09:06:44.23 1528.803 00:00:55 Yes
43 Joe Zarachowicz - MD 0903-IF21-CCC GRZL H 1 09:06:44.36 1528.759 00:00:55 Yes
44 Taranto Loft 2 - NJ 0120-AU21-TARA RDCK H 2 09:06:45.34 1528.454 00:00:56 Yes
45 Bodzianowski Loft - IL 0533-AU21-VITA BB H 1 09:06:46.89 1527.974 00:00:58 Yes
46 Marlee Doms - IN 4983-AU21-VITA SPLA H 1 09:06:49.35 1527.205 00:01:00 Yes
47 The Red Dirt Gang - OK 6801-AU21-ARPU CK H 1 09:06:53.32 1525.971 00:01:04 Yes
48 Crooked River Challenge - OR 0436-AU21-CORP BB H 1 09:06:53.37 1525.956 00:01:04 Yes
49 Liu s Loft - MO 0548-AU21-BAIZ BBWF H 1 09:06:54.39 1525.639 00:01:05 Yes
50 Flying M Loft - AL 0438-AU21-NWFI BB H 1 09:06:55.40 1525.325 00:01:06 Yes
51 Fues Loft - MN 61271-AU21-ARPU CKWF H 1 09:06:56.24 1525.068 00:01:07 Yes
52 Longjohn Loft - OK 1914-AU21-ARPU CK H 1 09:06:57.48 1524.680 00:01:08 Yes
53 Garde Loft - NM 2103-AU21-GARD BB H 2 09:06:58.09 1524.494 00:01:09 Yes
54 Gomez Loft - CA 5088-AU21-CHP BB H 3 09:07:00.81 1523.652 00:01:12 Yes
55 Medina Loft - TX 0058-AU21-JJME CKWF H 1 09:07:01.28 1523.506 00:01:12 Yes
56 Joe Zarachowicz - MD 0921-IF21-CCC BB H 2 09:07:01.85 1523.330 00:01:13 Yes
57 Kelley And Buckner - TX 0159-AU21-DENT 6026164 x 4224709 CKWF H 1 09:07:01.94 1523.302 00:01:13 Yes
58 Laqu Lofts - MI 6627-AU21-ARPU Prism CK H 2 09:07:02.15 1523.237 00:01:13 Yes
59 Dfl - MN 0501-AU21-DRIG GRZL H 1 09:07:02.94 1522.992 00:01:14 Yes
60 Callahan Loft - MO 0340-AU21-AA ANGR H 1 09:07:04.13 1522.624 00:01:15 Yes
61 Hosanna Lofts - OK 13547-AU21-ARPU Classy Sky BB C 1 09:07:04.36 1522.550 00:01:15 Lost
62 Liberty Loft - MA 105807-AU21-ARPU BB H 1 09:07:05.91 1522.074 00:01:17 Yes
63 Ireneo - Gross - CA 1618-AU21-CIRP BB H 1 09:07:07.19 1521.679 00:01:18 Yes
64 Flying D Loft - TX 1326-AU21-FLYD ARPU 40365/ Aztec 75 CK H 1 09:07:07.50 1521.580 00:01:18 Yes
65 Greg McKnight - CA 1060-AU21-PRO BB H 1 09:07:08.50 1521.271 00:01:19 Yes
66 Genesis Syndicate Loft - AZ 0341-AU21-GENE BBWF H 2 09:07:09.95 1520.827 00:01:21 Yes
67 Bryan Maier - PA 0576-IF21-MAIE BBSP H 1 09:07:11.62 1520.312 00:01:22 Yes
68 Westfall Loft - MO 0122-AU21-WMW BBWF H 1 09:07:11.87 1520.235 00:01:23 Yes
69 Ramirez Loft - TX 0149-AU21-DALL BB H 1 09:07:12.66 1519.991 00:01:24 Lost
70 Gary Gross - NE 2145-AU21-CIRP BB H 1 09:07:16.10 1518.932 00:01:27 Yes
71 Loux Loft - KS 0149-AU21-AIR BB H 1 09:07:16.66 1518.760 00:01:28 Yes
72 John Gutierrez - NM 21105-AU21-GUTZ whiskey/intel2 BBWF H 1 09:07:18.43 1518.212 00:01:29 Yes
73 Medina Loft - TX 0042-AU21-JJME BBWF H 2 09:07:18.83 1518.092 00:01:30 Yes
74 Callahan Loft - MO 0295-AU21-AA CKWF H 2 09:07:20.16 1517.684 00:01:31 Yes
75 Gomez Loft - CA 5081-AU21-CHP CK H 4 09:07:20.20 1517.671 00:01:31 Yes
76 Van Den Bossche Brothers - ME 1215-IF21-CMP Hurricane GRZL H 2 09:07:20.54 1517.564 00:01:31 Yes
77 P V Loft - MN 0506-AU21-ENG BB H 1 09:07:21.54 1517.257 00:01:32 Yes
78 Fte Flyers - IL 0409-AU21-RRV BB H 1 09:07:24.00 1516.505 00:01:35 Yes
79 Garde Loft - NM 2115-AU21-GARD CK H 3 09:07:25.80 1515.953 00:01:37 Yes
80 SoFly - NC 0072-IF21-TRC Ww Express BB H 1 09:07:26.47 1515.745 00:01:37 Yes
81 Cuevas Classic - TX 0812-AU21-DALL BB H 1 09:07:28.93 1514.994 00:01:40 Yes
82 Zapopan- Palomar- Ayon Loft - TX 0047-AU21-AFLC Cantayon BB H 1 09:07:29.32 1514.872 00:01:40 Yes
83 Wing & A Prayer - WI 1447-AU21-MPC BB H 2 09:07:30.13 1514.627 00:01:41 Yes
84 Malone Family Loft - IL 70108-AU21-ARPU "raspberry " ANDL H 1 09:07:30.98 1514.367 00:01:42 Yes
85 The Red Dirt Gang - OK 10300-AU21-FOYS BB H 2 09:07:32.17 1514.003 00:01:43 Yes
86 Adams Loft - PA 1033-IF21-FSJ CK H 3 09:07:32.96 1513.758 00:01:44 Yes
87 Roger Harlin - OK 1624-AU21-PRO CK H 1 09:07:33.89 1513.477 00:01:45 Yes
88 Genesis Syndicate Loft - AZ 0334-AU21-GENE BB H 3 09:07:34.58 1513.267 00:01:45 Yes
89 Mazzurco Loft - FL 0047-AU21-MAZZ BBWF H 1 09:07:36.36 1512.720 00:01:47 Yes
90 Ireneo - Gross - CA 1612-AU21-CIRP CK H 2 09:07:36.98 1512.531 00:01:48 Yes
91 Zapopan- Palomar- Ayon Loft - TX 0059-AU21-AFLC Cantayon BBWF H 2 09:07:37.30 1512.433 00:01:48 Yes
92 RandolphRacers - AL 0244-AU21-MCLO Maine Squeeze i ANGR H 1 09:07:37.60 1512.345 00:01:48 Yes
93 Carter Mayotte - AB 2870-AU21-GRAI BB H 1 09:07:39.01 1511.915 00:01:50 Yes
- !--!-AE07F8AF-! 09:07:41.25 1511.232
94 Horta Loft - IN 8540-AU21-JEDD BBWF H 1 09:07:42.92 1510.720 00:01:54 Yes
95 Bruce Daehn - FL 0043-AU21-NWFI 229x590 BBWF H 1 09:07:43.37 1510.584 00:01:54 Yes
96 Bizblood - CA 3282-AU21-FVC Biz-Ken easley -Greek con CK H 2 09:07:44.48 1510.246 00:01:55 Yes
97 Texas Dollys - TX 0051-AU21-SHIF Ruger GRZL H 1 09:07:44.53 1510.231 00:01:55 Yes

There are 388 bird records

Note: These Race Results are unofficial and subject to change until verified by the Race Committee and declared final.